www.pogodaiklimat.ru
Время
(UTC), дата
16 6.11
17 6.11
18 6.11
19 6.11
20 6.11
21 6.11
22 6.11
23 6.11
00 7.11
01 7.11
02 7.11
03 7.11
04 7.11
05 7.11
06 7.11
07 7.11
08 7.11
09 7.11
10 7.11
11 7.11
12 7.11
13 7.11
14 7.11
15 7.11
16 7.11
17 7.11
18 7.11
19 7.11
20 7.11
21 7.11
22 7.11
23 7.11
00 8.11
01 8.11
02 8.11
03 8.11
04 8.11
05 8.11
06 8.11
07 8.11
08 8.11
09 8.11
10 8.11
11 8.11
12 8.11
13 8.11
14 8.11
15 8.11
16 8.11
17 8.11
18 8.11
19 8.11
20 8.11
21 8.11
22 8.11
23 8.11
00 9.11
01 9.11
02 9.11
03 9.11
04 9.11
05 9.11
06 9.11
07 9.11
08 9.11
09 9.11
10 9.11
11 9.11
12 9.11
13 9.11
14 9.11
15 9.11
16 9.11
17 9.11
18 9.11
19 9.11
20 9.11
21 9.11
22 9.11
23 9.11
00 10.11
01 10.11
02 10.11
03 10.11
04 10.11
05 10.11
06 10.11
07 10.11
08 10.11
09 10.11
10 10.11
11 10.11
12 10.11
13 10.11
14 10.11
15 10.11
16 10.11
17 10.11
18 10.11
20 10.11
21 10.11
22 10.11
23 10.11
00 11.11
01 11.11
02 11.11
03 11.11
04 11.11
05 11.11
06 11.11
07 11.11
08 11.11
09 11.11
10 11.11
11 11.11
12 11.11
13 11.11
14 11.11
15 11.11
16 11.11
17 11.11
18 11.11
19 11.11
20 11.11
21 11.11
22 11.11
23 11.11
00 12.11
01 12.11
02 12.11
03 12.11
04 12.11
05 12.11
06 12.11
07 12.11
08 12.11
09 12.11
10 12.11
11 12.11
12 12.11
13 12.11
14 12.11
15 12.11
16 12.11
17 12.11
18 12.11
19 12.11
21 12.11
22 12.11
23 12.11
00 13.11
01 13.11
02 13.11
03 13.11
04 13.11
05 13.11
06 13.11
07 13.11
08 13.11
09 13.11
10 13.11
11 13.11
12 13.11
13 13.11
14 13.11
Ветер
(напр.,м/с)
Видим. Явления Облачность Т
(С)
Тd
(С)
f
(%)
Тe
(С)
Тes
(С)
Комфортность P
(гПа)
Po
(гПа)
Тmin
(С)
Tmax
(С)
R
(мм)
R24
(мм)
S
(см)
СВ 1 н/о н/о +11.2 +7.9 80 +11 +11 тепло 1015.3 1008.5
СЗ 1 н/о н/о +10.8 +8.4 85 +11 +11 тепло 1015.6 1008.8
С 1 30 км 3/1
[Cu hum Ci sp]
+10.2 +8.5 89 +10 +10 по сезону 1015.4 1008.6
С 2 н/о н/о +10.2 +8.3 88 +9 +9 по сезону 1015.5 1008.7
С 1 н/о н/о +10.0 +7.3 83 +10 +10 тепло 1015.6 1008.7
С 1 30 км 4/1
[Cu hum Ci sp]
+9.2 +7.0 86 +9 +9 по сезону 1015.8 1008.9
С 2 н/о н/о +9.8 +6.3 79 +9 +9 по сезону 1016.3 1009.4
С 2 н/о н/о +11.3 +7.0 75 +10 +10 по сезону 1016.1 1009.3
С 2 25 км 5/1
[Cu hum Ci fib]
+13.8 +7.6 66 +13 +16 тепло 1015.9 1009.1 +8.9
С 2 н/о н/о +16.0 +7.8 58 +16 +16 тепло 1015.4 1008.7
С 2 н/о н/о +17.1 +8.0 55 +18 +18 тепло 1014.5 1007.8
З 2 30 км 9/1
[Cu hum Ac trans Ci sp]
+19.2 +8.8 51 +21 +25 комфорт 1013.5 1006.9
Ю 2 н/о н/о +19.2 +6.3 43 +21 +21 комфорт 1012.6 1006.0
С 2 н/о н/о +19.4 +6.5 43 +21 +21 комфорт 1012.3 1005.7
СВ 1 20 км 9/1
[Cu hum Ac trans Ci sp]
+18.9 +7.0 46 +21 +23 комфорт 1012.2 1005.6
Ю 2 н/о н/о +18.6 +6.8 46 +19 +19 тепло 1012.4 1005.8
Ю 2 н/о н/о +17.8 +8.9 56 +19 +19 тепло 1012.1 1005.5
З 2 20 км 9/1
[Cu hum Ac As]
+17.8 +7.5 51 +19 +19 тепло 1012.4 1005.8
З 2 н/о н/о +16.1 +8.3 60 +16 +16 тепло 1012.8 1006.1
С 2 н/о н/о +15.2 +9.3 68 +15 +15 тепло 1013.4 1006.7
СЗ 4 20 км 9/9
[Cu Sc]
+16.2 +9.2 63 +15 +15 тепло 1014.1 1007.4 +20.2
С 2 н/о н/о +15.2 +9.3 68 +15 +15 тепло 1013.7 1007.0
С 2 н/о н/о +14.2 +9.7 74 +14 +14 тепло 1013.9 1007.2
С 3 н/о н/о +14.3 +9.7 74 +13 +13 тепло 1013.6 1006.9
С 4 н/о н/о +14.0 +9.5 74 +13 +13 тепло 1013.6 1006.9
С 3 н/о н/о +13.5 +8.8 73 +12 +12 тепло 1014.0 1007.2
С 3 20 км 1/1
[Sc Ac trans Ci fib]
+13.4 +8.5 72 +12 +12 тепло 1013.9 1007.1
С 3 н/о н/о +13.3 +8.2 71 +12 +12 тепло 1014.4 1007.6
С 4 н/о н/о +12.9 +7.6 70 +11 +11 тепло 1015.2 1008.4
С 4 20 км 3/1
[Cu hum Ac trans Ci sp]
+12.5 +7.0 69 +11 +11 по сезону 1016.1 1009.3
С 4 н/о н/о +12.6 +6.0 64 +11 +11 тепло 1016.9 1010.1
С 5 н/о н/о +13.7 +4.8 55 +12 +12 тепло 1017.9 1011.1
СЗ 5 25 км 1/1
[Cu hum Ci fib]
+14.9 +5.4 53 +14 +15 тепло 1018.2 1011.5 +12.4
С 5 н/о н/о +15.9 +4.6 47 +15 +15 тепло 1017.9 1011.2
СЗ 5 н/о н/о +17.3 +2.9 38 +17 +17 тепло 1017.2 1010.5
СЗ 5 30 км 1/0
[Ci fib]
+18.2 +2.9 36 +18 +22 тепло 1016.2 1009.6
СЗ 6 н/о н/о +18.3 -0.5 28 +18 +18 тепло 1015.2 1008.6
СЗ 6 н/о н/о +18.4 +1.0 31 +18 +18 тепло 1014.8 1008.2
З 6 35 км 1/1
[Cu hum Ac trans Ci fib]
+18.0 +1.9 34 +18 +19 тепло 1015.1 1008.5
СЗ 6 н/о н/о +17.0 +1.8 36 +16 +16 тепло 1015.2 1008.5
З 5 н/о н/о +15.7 +1.8 39 +15 +15 тепло 1015.6 1008.9
СЗ 4 30 км 1/0
[Ac trans]
+14.8 +2.0 42 +14 +14 тепло 1016.2 1009.5
СЗ 3 н/о н/о +13.6 +2.2 46 +13 +13 тепло 1016.8 1010.0
СЗ 5 н/о н/о +13.6 +1.3 43 +12 +12 тепло 1017.0 1010.2
С 3 30 км 1/0
[Ac trans]
+12.8 +1.2 45 +12 +12 тепло 1017.3 1010.5 +19.2
С 4 н/о н/о +12.4 +0.8 45 +11 +11 тепло 1017.3 1010.5
С 4 н/о н/о +12.0 -2.6 36 +10 +10 тепло 1017.0 1010.2
С 4 н/о н/о +11.4 -2.8 37 +10 +10 тепло 1016.8 1010.0
С 3 н/о н/о +11.1 -2.7 38 +10 +10 тепло 1016.6 1009.8
С 3 н/о н/о +10.2 -1.8 43 +9 +9 тепло 1016.4 1009.5
С 4 30 км ясно +9.8 -1.3 46 +8 +8 по сезону 1016.3 1009.4
С 3 н/о н/о +10.2 -1.5 44 +9 +9 тепло 1016.5 1009.6
С 2 н/о н/о +9.5 -0.7 49 +8 +8 тепло 1016.8 1009.9
С 2 30 км 1/1
[Cu med, cong]
+8.3 +1.0 60 +7 +7 по сезону 1017.0 1010.1
С 2 н/о н/о +8.8 +1.0 58 +7 +7 по сезону 1017.4 1010.5
С 3 н/о н/о +10.1 +2.7 60 +8 +8 тепло 1017.8 1010.9
С 4 35 км 1/1
[Cu hum]
+13.1 -0.9 38 +12 +14 тепло 1017.7 1010.9 +8.0
С 4 н/о н/о +14.5 -2.0 32 +14 +14 тепло 1017.2 1010.5
С 4 н/о н/о +16.5 -0.7 31 +16 +16 тепло 1016.4 1009.7
СЗ 3 30 км 1/1
[Cu Sc Ci sp]
+17.9 -1.3 27 +18 +24 тепло 1015.2 1008.6
З 3 н/о н/о +19.4 +1.4 30 +20 +20 тепло 1014.1 1007.5
З 2 н/о н/о +19.9 +1.4 29 +21 +21 комфорт 1013.6 1007.0
С 2 25 км 1/1
[Cu Sc Ci sp]
+19.3 -0.7 26 +20 +22 тепло 1013.4 1006.8
СЗ 2 н/о н/о +19.3 +1.3 30 +20 +20 тепло 1013.4 1006.8
СЗ 4 н/о н/о +17.5 +5.1 44 +17 +17 тепло 1013.6 1007.0
СЗ 3 35 км 1/0
[Ci fib]
+16.1 +6.3 52 +16 +16 тепло 1014.1 1007.4
СЗ 4 н/о н/о +15.4 +6.2 54 +15 +15 тепло 1014.2 1007.5
С 3 н/о н/о +15.0 +6.1 55 +14 +14 тепло 1014.5 1007.8
С 4 35 км ясно +14.6 +6.2 57 +14 +14 тепло 1014.8 1008.1 +20.1
С 4 н/о н/о +13.8 +5.7 58 +13 +13 тепло 1014.9 1008.1
С 2 н/о н/о +13.0 +5.4 60 +13 +13 тепло 1014.7 1007.9
С 3 н/о н/о +12.4 +5.3 62 +11 +11 тепло 1014.9 1008.1
С 3 н/о н/о +11.6 +5.5 66 +10 +10 тепло 1015.0 1008.2
С 2 н/о н/о +11.1 +5.6 69 +10 +10 тепло 1014.9 1008.1
С 3 30 км ясно +11.4 +5.1 65 +10 +10 тепло 1015.0 1008.2
СЗ 3 н/о н/о +11.0 +5.3 68 +9 +9 тепло 1015.3 1008.5
С 3 н/о н/о +11.2 +5.1 66 +10 +10 тепло 1015.5 1008.7
С 2 30 км ясно +11.2 +4.9 65 +10 +10 тепло 1015.8 1009.0
С 3 н/о н/о +11.0 +4.5 64 +10 +10 тепло 1016.4 1009.6
С 3 н/о н/о +12.5 +4.2 57 +12 +12 тепло 1016.9 1010.1
СЗ 3 35 км 1/1
[Cu hum]
+14.1 +3.9 50 +14 +16 тепло 1016.3 1009.5 +10.1
СЗ 3 н/о н/о +15.7 +1.8 39 +16 +16 тепло 1016.0 1009.3
С 3 н/о н/о +16.9 +1.8 36 +17 +17 тепло 1015.4 1008.7
СВ 2 30 км 1/1
[Cu hum Ci fib]
+18.3 +3.0 36 +19 +27 тепло 1014.3 1007.7
З 3 н/о н/о +18.7 +3.3 36 +19 +19 тепло 1013.8 1007.2
СЗ 3 н/о н/о +19.0 +3.2 35 +20 +20 тепло 1013.6 1007.0
З 2 30 км 9/1
[Cu hum Ci sp]
+18.0 +1.9 34 +19 +20 тепло 1013.3 1006.7
ЮЗ 1 н/о н/о +16.8 +2.8 39 +18 +18 по сезону 1013.5 1006.8
С 1 н/о н/о +15.7 +3.8 45 +17 +17 по сезону 1013.5 1006.8
С 1 25 км 9/0
[Ac trans Ci sp]
+15.3 +4.1 47 +16 +16 по сезону 1013.7 1007.0
С 1 н/о н/о +14.5 +5.1 53 +15 +15 по сезону 1013.8 1007.1
СВ 2 н/о н/о +13.8 +5.9 59 +13 +13 по сезону 1013.9 1007.2
В 2 25 км 9/0
[Ac trans Ci sp]
+12.4 +6.0 65 +12 +12 по сезону 1014.0 1007.2 +19.2
С 1 н/о н/о +12.5 +5.9 64 +14 +14 тепло 1014.1 1007.3
СВ 2 н/о н/о +12.3 +6.2 66 +12 +12 по сезону 1013.7 1006.9
С 1 н/о н/о +12.4 +6.0 65 +13 +13 тепло 1013.2 1006.4
С 2 н/о н/о +11.8 +6.1 68 +11 +11 по сезону 1013.0 1006.2
С 1 н/о н/о +12.1 +6.4 68 +12 +12 тепло 1012.9 1006.1
В 1 20 км 8/1
[Sc Ac trans Ci sp]
+11.7 +7.0 73 +12 +12 тепло 1012.5 1005.7
С 2 н/о н/о +10.7 +7.4 80 +10 +10 по сезону 1011.8 1005.0
В 2 20 км 6/1
[Sc Ac trans Ci sp]
+10.3 +7.6 83 +9 +9 по сезону 1011.5 1004.7
З 1 н/о н/о +10.9 +7.8 81 +11 +11 по сезону 1011.4 1004.6
З 1 н/о н/о +12.0 +8.1 77 +12 +12 тепло 1011.7 1004.9
С 2 15 км в посл. час ливневой дождь 9/3
[Sc Ac As Ci sp]
+12.4 +8.5 77 +12 +13 по сезону 1010.7 1003.9 +10.1 0.0
ЮЗ 2 н/о н/о +16.2 +10.5 69 +17 +17 тепло 1009.9 1003.2
ЮЗ 1 н/о н/о +16.7 +9.4 62 +18 +18 тепло 1008.6 1002.0
С 2 10 км в посл. час ливневой дождь 9/4
[Cu Sc Ac As]
+15.9 +10.0 68 +16 +18 тепло 1007.3 1000.7
СЗ 4 н/о н/о +12.2 +11.4 95 +10 +10 прохладно 1007.8 1001.1
С 2 н/о н/о +13.5 +11.7 89 +13 +13 по сезону 1007.0 1000.3
В 3 10 км {гроза, ливн. осадки} 1/1
[Cu med, cong Ac trans]
+14.9 +12.9 88 +14 +16 прохладно 1007.1 1000.4 4
В 2 н/о н/о +14.9 +13.3 90 +15 +15 по сезону 1007.0 1000.3
Ю 2 н/о н/о +14.5 +13.1 91 +14 +14 по сезону 1007.3 1000.6
С 2 20 км 8/8
[Cu med, cong]
+14.6 +12.8 89 +14 +14 по сезону 1008.4 1001.7
З 1 н/о н/о +14.0 +13.1 94 +15 +15 тепло 1009.1 1002.4
СВ 2 н/о н/о +13.3 +12.7 96 +12 +12 по сезону 1009.7 1003.0
СВ 1 20 км {ливн. осадки} 1/1
[Cu hum]
+12.8 +12.0 95 +13 +13 по сезону 1010.2 1003.5 +17.2 4
СЗ 2 н/о н/о +13.4 +11.1 86 +13 +13 тепло 1010.8 1004.1
С 2 н/о н/о +13.3 +11.4 88 +13 +13 тепло 1011.1 1004.4
СЗ 1 н/о н/о +12.5 +11.2 92 +12 +12 по сезону 1011.5 1004.7
В 1 н/о н/о +11.8 +11.0 95 +12 +12 тепло 1011.8 1005.0
С 1 н/о н/о +10.9 +10.6 98 +10 +10 тепло 1012.3 1005.5
СЗ 1 20 км 1/1
[Cu Sc]
+10.8 +10.5 98 +11 +11 по сезону 1012.6 1005.8
С 1 н/о н/о +11.2 +10.6 96 +11 +11 тепло 1013.2 1006.4
СВ 2 н/о н/о +10.7 +10.1 96 +10 +10 тепло 1013.8 1007.0
С 3 20 км 1/1
[Cu Sc]
+11.4 +10.0 91 +10 +10 по сезону 1014.0 1007.2
СЗ 2 н/о н/о +10.9 +10.1 95 +9 +9 по сезону 1014.9 1008.1
С 2 н/о н/о +12.8 +10.0 83 +12 +12 тепло 1015.9 1009.1
С 5 20 км 1/1
[Cu Sc]
+14.8 +9.6 71 +13 +15 по сезону 1016.3 1009.6 +10.5
С 5 н/о н/о +17.1 +10.7 66 +16 +16 тепло 1016.5 1009.8
С 8 н/о н/о +19.0 +5.8 42 +19 +19 тепло 1016.5 1009.9
СЗ 7 30 км 1/1
[Cu hum]
+19.8 +4.7 37 +20 +22 тепло 1015.8 1009.2
СЗ 6 н/о н/о +20.3 +4.4 35 +21 +21 комфорт 1015.5 1008.9
СЗ 7 н/о н/о +20.2 +4.3 35 +20 +20 тепло 1015.3 1008.7
СЗ 5 30 км 1/1
[Cu hum]
+19.9 +4.0 35 +20 +21 тепло 1015.7 1009.1
СЗ 5 н/о н/о +19.3 +1.8 31 +19 +19 тепло 1016.2 1009.6
СЗ 4 н/о н/о +17.9 +2.2 35 +18 +18 тепло 1017.0 1010.3
З 4 30 км 1/1
[Cu hum Ci fib]
+16.6 +2.2 38 +16 +16 тепло 1018.0 1011.3
СЗ 5 н/о н/о +15.8 +1.9 39 +15 +15 тепло 1018.2 1011.5
СЗ 3 н/о н/о +14.5 +3.3 47 +14 +14 тепло 1018.8 1012.0
С 3 30 км 9/0
[Ac trans Ci sp]
+14.8 +2.7 44 +14 +14 тепло 1019.9 1013.1 +20.8
С 2 н/о н/о +13.6 +2.8 48 +13 +13 тепло 1020.0 1013.2
С 2 н/о н/о +13.5 +3.3 50 +13 +13 тепло 1020.4 1013.6
С 2 н/о н/о +13.2 +3.8 53 +13 +13 тепло 1020.3 1013.5
С 3 н/о н/о +12.7 +3.9 55 +12 +12 тепло 1020.5 1013.7
С 3 н/о н/о +12.2 +4.2 58 +11 +11 тепло 1020.5 1013.7
С 3 30 км 1/1
[Sc Ac trans Ci fib]
+11.4 +3.9 60 +10 +10 по сезону 1020.3 1013.5
С 2 н/о н/о +10.8 +4.3 64 +10 +10 тепло 1020.6 1013.7
С 2 30 км 8/8
[Cu Sc]
+11.3 +5.2 66 +11 +11 по сезону 1021.1 1014.2
С 1 н/о н/о +11.5 +6.4 71 +11 +11 по сезону 1021.4 1014.5
С 2 н/о н/о +12.4 +6.5 67 +12 +12 тепло 1021.8 1015.0
СЗ 1 30 км 8/8
[Cu Sc]
+14.3 +6.7 60 +15 +16 тепло 1021.7 1014.9 +10.3
С 1 н/о н/о +15.2 +6.2 55 +16 +16 тепло 1021.1 1014.3
СЗ 1 н/о н/о +15.7 +5.9 52 +16 +16 тепло 1020.3 1013.6
СЗ 2 25 км 9/9
[Sc]
+16.7 +5.4 47 +17 +18 тепло 1019.4 1012.7
В 1 н/о н/о +17.0 +5.9 48 +19 +19 тепло 1018.7 1012.0
Ю 2 н/о н/о +18.3 +7.7 50 +19 +19 тепло 1017.8 1011.1
ЮВ 2 25 км 9/4
[Sc Ac trans Ci sp]
+19.8 +10.2 54 +22 +23 комфорт 1017.1 1010.5
ЮВ 3 н/о н/о +18.4 +10.3 59 +19 +19 тепло 1017.2 1010.6
ЮВ 3 н/о н/о +17.2 +11.0 67 +17 +17 тепло 1017.1 1010.4
ЮВ 2 15 км 8/4
[Sc Ac As Ci sp]
+16.2 +11.8 75 +16 +16 тепло 1017.0 1010.3
ЮВ 2 н/о н/о +16.3 +11.9 75 +17 +17 тепло 1017.2 1010.5
ЮВ 3 н/о н/о +16.5 +11.4 72 +16 +16 тепло 1016.3 1009.6
ЮВ 3 15 км в посл. час ливневой дождь 10/10
[Cu med, cong]
+16.6 +11.5 72 +16 +16 тепло 1015.8 1009.1 +19.9 0.0
ЮВ 1 н/о н/о +16.8 +11.7 72 +18 +18 тепло 1015.6 1008.9
В 2 н/о н/о +16.7 +12.7 77 +17 +17 тепло 1014.6 1007.9
Местоположение метеостанции Нагоя (Япония): широта 35.17 долгота 136.96 высота над уровнем моря 56 м.
В архиве по умолчанию представлена погода в Нагоя за последнюю неделю. Архивные данные за месяц целиком и за предыдущие месяцы, начиная с января 2011 года, Вы можете получить, выбрав интересующий диапазон дат из раскрывающегося списка и нажав кнопку "Найти!".
*Определитесь, кто Вы:
Внимание! Время в таблицах - всемирное. Для получения местного времени необходимо прибавить поправку, которая равна 9 ч.
Смотрите также архив погоды в соседних городах и на ближайших метеорологических станциях:
Партнеры нашего сайта:      
Пояснения к столбцам:
  • Ветер - указаны скорость ветра в м/с - средняя за 10 мин, порывы в срок и между сроками (в фигурных скобках) и направление, откуда дует ветер: С - северный,
  • СВ - северо-восточный, В - восточный, ЮВ - юго-восточный, Ю - южный, ЮЗ - юго-западный, З - западный, СЗ - северо-западный.
  • Видимость - горизонтальная дальность видимости в метрах или километрах. При видимости от 1 до 10 км при отсутствии осадков обычно наблюдается дымка, при ухудшении видимости до 1 км и менее - туман. В сухую погоду видимость может ухудшаться дымом, пылью или мглою.
  • Явления - указаны атмосферные явления, наблюдавшиеся в срок или в последний час перед сроком; фигурными скобками обозначены явления, наблюдавшиеся между сроками (за 1-3 часа до срока); квадратными скобками обозначены град или гололедные отложения с указанием их диаметра в мм.
  • Облачность - указаны через наклонную черту общая и нижняя облачность в баллах и высота нижней границы облаков в метрах; квадратными скобками обозначены формы облаков: Ci - перистые, Cs - перисто-слоистые, Cc - перисто-кучевые, Ac - высококучевые, As - высокослоистые, Sc - слоисто-кучевые, Ns - слоисто-дождевые, Cu - кучевые, Cb - кучево-дождевые. Подробнее классификацию облаков см. в Атласе облаков (PDF).
  • T - Температура воздуха - температура, измеренная на высоте 2 м над землей.
  • Td - Температура точки росы - температура, при понижении до которой содержащийся в воздухе водяной пар достигнет насыщения.
  • f - Относительная влажность воздуха - влажноcть воздуха, измеренная на высоте 2 м над землей.
  • Te - Эффективная температура - температура, которую ощущает одетый по сезону человек в тени. Характеристика душности погоды. При расчете учитывается влияние влажности воздуха и скорости ветра на теплоощущения человека.
  • Tes - Эффективная температура на солнце - температура, которую ощущает человек, с поправкой на солнечный нагрев. Характеристика знойности погоды. Зависит от высоты солнца над горизонтом, облачности и скорости ветра. Ночью, в пасмурную погоду, а также при ветре 12 м/с и более поправка равна нулю.
  • P - Атмосферное давление - приведенное к уровню моря атмосферное давление.
  • Po - Атмосферное давление - измеренное на уровне метеостанции атмосферное давление.
  • Tmin - Минимальная температура - минимум температуры воздуха на высоте 2 м над землей.
  • Tmax - Максимальная температура - максимум температуры воздуха на высоте 2 м над землей.
  • R - Количество осадков - Количество выпавших осадков за период времени, мм. При наведении курсора мыши на число - период времени, за который выпало указанное количество осадков.
  • R24 - Количество осадков - Количество выпавших осадков за 24 часа, мм.
  • S - Снежный покров - Высота снежного покрова, см. При наведении курсора мыши на число - состояние снежного покрова и степень покрытия местности в баллах.